SWR44X LSZH-EKCH

Flight info

Callsign SWR44X
Flight time 1h 27m
Altitude 36000
Route DEGES Z1 ETAGO DCT HAREM/N0446F350 DCT LOHRE DCT BERXO DCT MAKEL N851 GESKA Z711 MONAK
Aircraft A320/M-SDE3FGHIRWY/LB1

Departure

Time 2026-04-26 07:51
Airport Zürich Airport (LSZH)

Arrival

Time 2026-04-26 09:18
Airport Copenhagen Kastrup Airport (EKCH)
Time Latitude Longitude Altitude Speed Heading
2026-04-26 07:19 47.44624 8.56021 1397 ft 0 kts 245°
2026-04-26 07:44 47.44622 8.56015 1403 ft 5 kts 245°
2026-04-26 07:44 47.44620 8.55905 1398 ft 16 kts 310°
2026-04-26 07:44 47.44725 8.55832 1394 ft 18 kts 335°
2026-04-26 07:45 47.44837 8.55761 1399 ft 18 kts 337°
2026-04-26 07:45 47.44952 8.55718 1399 ft 16 kts
2026-04-26 07:45 47.45041 8.55713 1406 ft 12 kts 338°
2026-04-26 07:45 47.45122 8.55654 1409 ft 14 kts 334°
2026-04-26 07:46 47.45217 8.55591 1408 ft 16 kts 339°
2026-04-26 07:46 47.45321 8.55548 1412 ft 16 kts 336°
2026-04-26 07:46 47.45427 8.55475 1408 ft 18 kts 336°
2026-04-26 07:46 47.45523 8.55490 1409 ft 15 kts 78°
2026-04-26 07:47 47.45516 8.55643 1412 ft 16 kts 95°
2026-04-26 07:47 47.45506 8.55799 1409 ft 15 kts 97°
2026-04-26 07:47 47.45496 8.55942 1407 ft 13 kts 96°
2026-04-26 07:47 47.45487 8.56064 1410 ft 11 kts 96°
2026-04-26 07:48 47.45480 8.56176 1407 ft 13 kts 95°
2026-04-26 07:48 47.45531 8.56310 1414 ft 17 kts 50°
2026-04-26 07:48 47.45594 8.56462 1414 ft 17 kts 87°
2026-04-26 07:48 47.45584 8.56630 1417 ft 15 kts 95°
2026-04-26 07:49 47.45575 8.56766 1421 ft 11 kts 96°
2026-04-26 07:49 47.45567 8.56872 1420 ft 11 kts 95°
2026-04-26 07:49 47.45568 8.56971 1421 ft 8 kts 64°
2026-04-26 07:50 47.45610 8.57021 1424 ft 5 kts 358°
2026-04-26 07:50 47.45640 8.57022 1425 ft 4 kts
2026-04-26 07:50 47.45666 8.56985 1424 ft 9 kts 275°
2026-04-26 07:50 47.45689 8.56680 1418 ft 65 kts 277°
2026-04-26 07:51 47.45757 8.55687 1406 ft 127 kts 276°
2026-04-26 07:51 47.45838 8.54395 1508 ft 156 kts 276°
2026-04-26 07:51 47.45923 8.52871 2105 ft 159 kts 277°
2026-04-26 07:51 47.46041 8.51230 2797 ft 164 kts 279°
2026-04-26 07:52 47.46177 8.49462 3131 ft 184 kts 279°
2026-04-26 07:52 47.46095 8.47469 3484 ft 206 kts 245°
2026-04-26 07:52 47.45137 8.45812 3753 ft 224 kts 217°
2026-04-26 07:52 47.44015 8.44142 4334 ft 235 kts 237°
2026-04-26 07:53 47.43377 8.41923 5177 ft 235 kts 255°
2026-04-26 07:53 47.42950 8.39589 5959 ft 235 kts 254°
2026-04-26 07:53 47.42272 8.37398 6692 ft 236 kts 231°
2026-04-26 07:53 47.41034 8.35884 7359 ft 238 kts 204°
2026-04-26 07:54 47.39426 8.35371 7948 ft 240 kts 175°
2026-04-26 07:54 47.37818 8.36030 8507 ft 246 kts 150°
2026-04-26 07:54 47.36517 8.37786 8785 ft 266 kts 119°
2026-04-26 07:54 47.35970 8.40448 9174 ft 280 kts 88°
2026-04-26 07:55 47.36450 8.43216 9824 ft 284 kts 57°
2026-04-26 07:55 47.37833 8.45300 10473 ft 290 kts 33°
2026-04-26 07:55 47.39541 8.47102 10697 ft 314 kts 37°
2026-04-26 07:55 47.41281 8.49238 10885 ft 337 kts 40°
2026-04-26 07:56 47.43077 8.51598 11279 ft 351 kts 41°
2026-04-26 07:56 47.44877 8.54006 11911 ft 356 kts 41°
2026-04-26 07:56 47.46735 8.56468 12581 ft 361 kts 40°
2026-04-26 07:56 47.48629 8.58936 13230 ft 365 kts 40°
2026-04-26 07:57 47.50560 8.61406 13896 ft 369 kts 39°
2026-04-26 07:57 47.52524 8.63883 14494 ft 373 kts 39°
2026-04-26 07:57 47.54513 8.66382 15073 ft 376 kts 39°
2026-04-26 07:57 47.56519 8.68901 15667 ft 380 kts 39°
2026-04-26 07:58 47.58541 8.71446 16245 ft 383 kts 39°
2026-04-26 07:58 47.60575 8.74018 16829 ft 387 kts 39°
2026-04-26 07:58 47.62625 8.76622 17388 ft 390 kts 39°
2026-04-26 07:58 47.64695 8.79257 17956 ft 394 kts 39°
2026-04-26 07:59 47.66751 8.81875 18525 ft 397 kts 39°
2026-04-26 07:59 47.68858 8.84555 19009 ft 401 kts 39°
2026-04-26 07:59 47.70985 8.87256 19485 ft 404 kts 39°
2026-04-26 07:59 47.73130 8.89986 19975 ft 408 kts 39°
2026-04-26 08:00 47.75295 8.92746 20443 ft 411 kts 39°
2026-04-26 08:00 47.77471 8.95527 20920 ft 415 kts 39°
2026-04-26 08:00 47.79669 8.98340 21385 ft 418 kts 39°
2026-04-26 08:00 47.81848 9.01130 21829 ft 421 kts 39°
2026-04-26 08:01 47.84072 9.03985 22270 ft 424 kts 39°
2026-04-26 08:01 47.86316 9.06868 22701 ft 427 kts 39°
2026-04-26 08:01 47.88576 9.09773 23130 ft 430 kts 39°
2026-04-26 08:01 47.90846 9.12696 23539 ft 433 kts 39°
2026-04-26 08:02 47.93135 9.15646 23927 ft 436 kts 39°
2026-04-26 08:02 47.95433 9.18609 24250 ft 438 kts 39°
2026-04-26 08:02 47.97744 9.21596 24587 ft 441 kts 39°
2026-04-26 08:02 48.00034 9.24558 24912 ft 443 kts 39°
2026-04-26 08:03 48.02364 9.27577 25251 ft 445 kts 39°
2026-04-26 08:03 48.04707 9.30617 25572 ft 447 kts 39°
2026-04-26 08:03 48.07056 9.33669 25887 ft 449 kts 39°
2026-04-26 08:03 48.09417 9.36739 26202 ft 451 kts 39°
2026-04-26 08:04 48.11798 9.39805 26502 ft 452 kts 37°
2026-04-26 08:04 48.14398 9.42451 26804 ft 452 kts 27°
2026-04-26 08:04 48.17247 9.44434 27098 ft 451 kts 18°
2026-04-26 08:04 48.20221 9.45682 27374 ft 451 kts
2026-04-26 08:05 48.23336 9.46187 27641 ft 450 kts 359°
2026-04-26 08:05 48.26434 9.46184 27911 ft 451 kts 358°
2026-04-26 08:05 48.29567 9.46181 28176 ft 453 kts 358°
2026-04-26 08:05 48.32728 9.46190 28430 ft 455 kts 358°
2026-04-26 08:06 48.35893 9.46201 28678 ft 457 kts 358°
2026-04-26 08:06 48.39072 9.46210 28930 ft 458 kts 358°
2026-04-26 08:06 48.42269 9.46214 29157 ft 460 kts 358°
2026-04-26 08:06 48.45430 9.46217 29412 ft 460 kts 358°
2026-04-26 08:07 48.48629 9.46218 29741 ft 459 kts 358°
2026-04-26 08:07 48.51820 9.46218 30081 ft 459 kts 358°
2026-04-26 08:07 48.55009 9.46214 30402 ft 458 kts 357°
2026-04-26 08:07 48.58192 9.46192 30681 ft 457 kts 357°
2026-04-26 08:08 48.61369 9.46156 30960 ft 456 kts 357°
2026-04-26 08:08 48.64537 9.46115 31240 ft 455 kts 357°
2026-04-26 08:08 48.67708 9.46072 31516 ft 455 kts 356°
2026-04-26 08:08 48.70828 9.46025 31783 ft 454 kts 356°
2026-04-26 08:09 48.73981 9.45972 32047 ft 453 kts 356°
2026-04-26 08:09 48.77128 9.45864 32324 ft 452 kts 355°
2026-04-26 08:09 48.80272 9.45706 32599 ft 451 kts 355°
2026-04-26 08:09 48.83408 9.45522 32870 ft 451 kts 355°
2026-04-26 08:10 48.86545 9.45331 33149 ft 450 kts 355°
2026-04-26 08:10 48.89673 9.45148 33422 ft 450 kts 355°
2026-04-26 08:10 48.92800 9.44978 33696 ft 449 kts 355°
2026-04-26 08:10 48.95921 9.44814 33973 ft 449 kts 355°
2026-04-26 08:11 48.98999 9.44661 34238 ft 448 kts 355°
2026-04-26 08:11 49.02114 9.44511 34469 ft 448 kts 355°
2026-04-26 08:11 49.05232 9.44361 34690 ft 448 kts 355°
2026-04-26 08:11 49.08338 9.44206 34910 ft 447 kts 355°
2026-04-26 08:12 49.11449 9.44049 35119 ft 447 kts 355°
2026-04-26 08:12 49.14564 9.43892 35323 ft 447 kts 355°
2026-04-26 08:12 49.17674 9.43732 35522 ft 447 kts 355°
2026-04-26 08:12 49.20783 9.43573 35705 ft 447 kts 355°
2026-04-26 08:13 49.23889 9.43415 35902 ft 447 kts 355°
2026-04-26 08:13 49.26991 9.43253 36081 ft 447 kts 355°
2026-04-26 08:13 49.30101 9.43090 36236 ft 447 kts 355°
2026-04-26 08:13 49.33176 9.42928 36269 ft 449 kts 355°
2026-04-26 08:14 49.39421 9.42597 36266 ft 449 kts 355°
2026-04-26 08:14 49.45672 9.42268 36269 ft 450 kts 355°
2026-04-26 08:15 49.51920 9.41957 36275 ft 450 kts 355°
2026-04-26 08:15 49.58141 9.41641 36278 ft 450 kts 355°
2026-04-26 08:16 49.64401 9.41841 36284 ft 452 kts
2026-04-26 08:16 49.70652 9.42847 36284 ft 453 kts
2026-04-26 08:17 49.75867 9.43684 36280 ft 453 kts
2026-04-26 08:17 49.82128 9.44680 36284 ft 453 kts
2026-04-26 08:18 49.89412 9.45838 36290 ft 452 kts
2026-04-26 08:18 49.94656 9.46689 36288 ft 452 kts
2026-04-26 08:19 50.00877 9.47696 36292 ft 453 kts
2026-04-26 08:19 50.07142 9.48803 36295 ft 454 kts
2026-04-26 08:20 50.13326 9.50847 36301 ft 455 kts 10°
2026-04-26 08:20 50.19515 9.52917 36307 ft 455 kts 10°
2026-04-26 08:21 50.25663 9.54981 36308 ft 455 kts 10°
2026-04-26 08:21 50.31860 9.57065 36318 ft 455 kts 10°
2026-04-26 08:22 50.38053 9.59155 36322 ft 455 kts 10°
2026-04-26 08:22 50.44243 9.61246 36327 ft 455 kts 10°
2026-04-26 08:23 50.50389 9.63338 36327 ft 454 kts 11°
2026-04-26 08:23 50.56561 9.65444 36325 ft 454 kts 10°
2026-04-26 08:24 50.62735 9.67547 36327 ft 454 kts 10°
2026-04-26 08:24 50.68909 9.69643 36335 ft 454 kts 10°
2026-04-26 08:25 50.75081 9.71750 36333 ft 454 kts 11°
2026-04-26 08:25 50.81204 9.73862 36334 ft 453 kts 11°
2026-04-26 08:26 50.87372 9.76000 36331 ft 453 kts 11°
2026-04-26 08:26 50.93535 9.78132 36335 ft 453 kts 11°
2026-04-26 08:27 50.99690 9.80260 36336 ft 453 kts 10°
2026-04-26 08:27 51.05851 9.82393 36336 ft 453 kts 11°
2026-04-26 08:28 51.11967 9.84530 36337 ft 453 kts 10°
2026-04-26 08:28 51.18115 9.86676 36337 ft 452 kts 10°
2026-04-26 08:29 51.24219 9.89124 36336 ft 454 kts 17°
2026-04-26 08:29 51.30147 9.92400 36337 ft 454 kts 17°
2026-04-26 08:30 51.36103 9.95705 36339 ft 453 kts 17°
2026-04-26 08:30 51.42062 9.99008 36343 ft 453 kts 17°
2026-04-26 08:31 51.48020 10.02314 36343 ft 453 kts 17°
2026-04-26 08:31 51.53968 10.05627 36339 ft 452 kts 17°
2026-04-26 08:32 51.59874 10.08934 36342 ft 452 kts 17°
2026-04-26 08:32 51.65814 10.12264 36344 ft 452 kts 17°
2026-04-26 08:33 51.71753 10.15604 36341 ft 452 kts 17°
2026-04-26 08:33 51.77682 10.18937 36344 ft 451 kts 17°
2026-04-26 08:34 51.83572 10.22255 36348 ft 451 kts 17°
2026-04-26 08:34 51.89492 10.25600 36347 ft 450 kts 17°
2026-04-26 08:35 51.95400 10.28968 36347 ft 450 kts 17°
2026-04-26 08:35 52.01300 10.32341 36351 ft 450 kts 17°
2026-04-26 08:36 52.07153 10.35695 36358 ft 449 kts 17°
2026-04-26 08:36 52.13053 10.39078 36366 ft 449 kts 16°
2026-04-26 08:37 52.18938 10.42460 36370 ft 448 kts 16°
2026-04-26 08:37 52.24819 10.45847 36379 ft 448 kts 16°
2026-04-26 08:38 52.30652 10.49216 36377 ft 447 kts 16°
2026-04-26 08:38 52.36517 10.52606 36378 ft 447 kts 16°
2026-04-26 08:39 52.42371 10.56002 36379 ft 446 kts 16°
2026-04-26 08:39 52.48223 10.59411 36371 ft 446 kts 16°
2026-04-26 08:40 52.54064 10.62824 36362 ft 445 kts 16°
2026-04-26 08:40 52.59862 10.66228 36358 ft 445 kts 16°
2026-04-26 08:41 52.65684 10.69661 36347 ft 444 kts 15°
2026-04-26 08:41 52.71503 10.73092 36346 ft 444 kts 15°
2026-04-26 08:42 52.77324 10.76532 36347 ft 444 kts 15°
2026-04-26 08:42 52.83091 10.79940 36346 ft 443 kts 15°
2026-04-26 08:43 52.88899 10.83381 36343 ft 443 kts 15°
2026-04-26 08:43 52.94686 10.86831 36344 ft 442 kts 15°
2026-04-26 08:44 53.00480 10.90302 36344 ft 442 kts 15°
2026-04-26 08:44 53.06224 10.93757 36341 ft 441 kts 15°
2026-04-26 08:45 53.11997 10.97225 36342 ft 441 kts 15°
2026-04-26 08:45 53.17765 11.00697 36343 ft 441 kts 15°
2026-04-26 08:46 53.23530 11.04189 36348 ft 440 kts 15°
2026-04-26 08:46 53.29249 11.07657 36347 ft 440 kts 15°
2026-04-26 08:47 53.34998 11.11161 36345 ft 439 kts 15°
2026-04-26 08:47 53.40744 11.14668 36343 ft 439 kts 15°
2026-04-26 08:48 53.46464 11.18156 36348 ft 438 kts 15°
2026-04-26 08:48 53.52205 11.21672 36339 ft 438 kts 15°
2026-04-26 08:49 53.57884 11.25163 36342 ft 438 kts 15°
2026-04-26 08:49 53.63604 11.28697 36338 ft 437 kts 15°
2026-04-26 08:50 53.69318 11.32230 36344 ft 437 kts 14°
2026-04-26 08:50 53.75023 11.35771 36347 ft 437 kts 14°
2026-04-26 08:51 53.83528 11.41069 36340 ft 436 kts 14°
2026-04-26 08:52 53.89213 11.44628 36343 ft 435 kts 14°
2026-04-26 08:52 53.94891 11.48195 36347 ft 435 kts 14°
2026-04-26 08:53 54.00561 11.51760 36348 ft 434 kts 14°
2026-04-26 08:53 54.06190 11.55303 36344 ft 434 kts 14°
2026-04-26 08:54 54.11843 11.58879 36072 ft 433 kts 14°
2026-04-26 08:54 54.14662 11.60662 35822 ft 433 kts 14°
2026-04-26 08:54 54.17490 11.62452 35577 ft 433 kts 14°
2026-04-26 08:54 54.20319 11.64249 34845 ft 436 kts 14°
2026-04-26 08:55 54.23173 11.66067 33942 ft 439 kts 13°
2026-04-26 08:55 54.26004 11.67876 32992 ft 441 kts 13°
2026-04-26 08:55 54.28886 11.69719 32054 ft 443 kts 13°
2026-04-26 08:55 54.31778 11.71567 31129 ft 444 kts 13°
2026-04-26 08:56 54.34681 11.73421 30015 ft 447 kts 14°
2026-04-26 08:56 54.37600 11.75289 28894 ft 448 kts 14°
2026-04-26 08:56 54.40489 11.77151 28263 ft 439 kts 14°
2026-04-26 08:56 54.43322 11.78990 27593 ft 432 kts 14°
2026-04-26 08:57 54.46106 11.80840 26901 ft 427 kts 15°
2026-04-26 08:57 54.48833 11.82833 26152 ft 424 kts 17°
2026-04-26 08:57 54.51471 11.84906 25464 ft 421 kts 18°
2026-04-26 08:57 54.54102 11.87055 24758 ft 417 kts 19°
2026-04-26 08:58 54.56709 11.89202 24062 ft 413 kts 19°
2026-04-26 08:58 54.59297 11.91314 23307 ft 409 kts 19°
2026-04-26 08:58 54.61836 11.93473 22664 ft 407 kts 23°
2026-04-26 08:58 54.64215 11.96119 22024 ft 405 kts 26°
2026-04-26 08:59 54.66547 11.98801 21431 ft 400 kts 26°
2026-04-26 08:59 54.68848 12.01452 20855 ft 395 kts 26°
2026-04-26 08:59 54.71119 12.04071 20286 ft 391 kts 26°
2026-04-26 08:59 54.73339 12.06636 19783 ft 386 kts 26°
2026-04-26 09:00 54.75534 12.09185 19537 ft 376 kts 26°
2026-04-26 09:00 54.77694 12.11698 19073 ft 372 kts 26°
2026-04-26 09:00 54.79833 12.14185 18582 ft 369 kts 26°
2026-04-26 09:00 54.81943 12.16640 17814 ft 363 kts 26°
2026-04-26 09:01 54.84048 12.19082 17185 ft 363 kts 27°
2026-04-26 09:01 54.86141 12.21510 16656 ft 360 kts 27°
2026-04-26 09:01 54.88211 12.23920 16149 ft 357 kts 27°
2026-04-26 09:01 54.90240 12.26292 15623 ft 355 kts 27°
2026-04-26 09:02 54.92277 12.28681 15110 ft 353 kts 27°
2026-04-26 09:02 54.94305 12.31060 14569 ft 351 kts 27°
2026-04-26 09:02 54.96323 12.33429 14028 ft 349 kts 28°
2026-04-26 09:02 54.98329 12.35784 13452 ft 346 kts 28°
2026-04-26 09:03 55.00312 12.38116 12904 ft 343 kts 28°
2026-04-26 09:03 55.02286 12.40429 12363 ft 340 kts 28°
2026-04-26 09:03 55.04245 12.42712 11811 ft 337 kts 28°
2026-04-26 09:03 55.06161 12.44942 11269 ft 335 kts 28°
2026-04-26 09:04 55.08072 12.47171 11020 ft 323 kts 28°
2026-04-26 09:04 55.09899 12.49316 10897 ft 309 kts 28°
2026-04-26 09:04 55.11642 12.51369 10772 ft 296 kts 28°
2026-04-26 09:04 55.13315 12.53341 10640 ft 282 kts 28°
2026-04-26 09:05 55.14907 12.55219 10416 ft 272 kts 28°
2026-04-26 09:05 55.16470 12.57046 10212 ft 268 kts 28°
2026-04-26 09:05 55.18018 12.58854 10082 ft 268 kts 28°
2026-04-26 09:05 55.19564 12.60667 9942 ft 267 kts 28°
2026-04-26 09:06 55.21083 12.62450 9733 ft 267 kts 28°
2026-04-26 09:06 55.22620 12.64263 9406 ft 265 kts 29°
2026-04-26 09:06 55.24189 12.65904 9097 ft 262 kts 24°
2026-04-26 09:06 55.25786 12.67435 8836 ft 261 kts 24°
2026-04-26 09:07 55.27376 12.68965 8561 ft 261 kts 25°
2026-04-26 09:07 55.28963 12.70498 8287 ft 260 kts 25°
2026-04-26 09:07 55.30546 12.72033 8013 ft 259 kts 25°
2026-04-26 09:07 55.32122 12.73563 7740 ft 258 kts 25°
2026-04-26 09:08 55.33767 12.74576 7472 ft 253 kts
2026-04-26 09:08 55.35496 12.74338 7199 ft 251 kts 343°
2026-04-26 09:08 55.37023 12.72909 6696 ft 250 kts 320°
2026-04-26 09:08 55.38168 12.70592 6352 ft 251 kts 310°
2026-04-26 09:09 55.39224 12.68233 6212 ft 239 kts 310°
2026-04-26 09:09 55.40228 12.65990 6071 ft 227 kts 311°
2026-04-26 09:09 55.41181 12.63864 5940 ft 216 kts 311°
2026-04-26 09:09 55.42055 12.61769 5806 ft 209 kts 301°
2026-04-26 09:10 55.42470 12.59389 5640 ft 207 kts 278°
2026-04-26 09:10 55.42318 12.56862 5367 ft 212 kts 255°
2026-04-26 09:10 55.41578 12.54601 5065 ft 218 kts 230°
2026-04-26 09:10 55.40445 12.52815 4769 ft 219 kts 224°
2026-04-26 09:11 55.39294 12.51067 4488 ft 218 kts 224°
2026-04-26 09:11 55.38247 12.49192 4191 ft 211 kts 245°
2026-04-26 09:11 55.37934 12.46828 4030 ft 191 kts 283°
2026-04-26 09:11 55.38478 12.44897 3900 ft 172 kts 320°
2026-04-26 09:12 55.39454 12.43795 3594 ft 169 kts 333°
2026-04-26 09:12 55.40514 12.42886 3256 ft 170 kts 335°
2026-04-26 09:12 55.41582 12.42013 3036 ft 169 kts 335°
2026-04-26 09:12 55.42659 12.41150 3011 ft 170 kts 335°
2026-04-26 09:13 55.43743 12.40298 3015 ft 171 kts 338°
2026-04-26 09:13 55.44908 12.39936 3016 ft 172 kts
2026-04-26 09:13 55.46075 12.40419 3011 ft 175 kts 22°
2026-04-26 09:13 55.47074 12.41677 3022 ft 179 kts 37°
2026-04-26 09:14 55.48014 12.43121 2973 ft 180 kts 37°
2026-04-26 09:14 55.48943 12.44547 2792 ft 180 kts 37°
2026-04-26 09:14 55.49885 12.45991 2561 ft 179 kts 37°
2026-04-26 09:14 55.50825 12.47434 2318 ft 179 kts 37°
2026-04-26 09:15 55.51761 12.48871 2071 ft 177 kts 37°
2026-04-26 09:15 55.52675 12.50274 1813 ft 171 kts 37°
2026-04-26 09:15 55.53538 12.51604 1595 ft 155 kts 37°
2026-04-26 09:15 55.54317 12.52803 1385 ft 143 kts 37°
2026-04-26 09:16 55.55054 12.53936 1180 ft 138 kts 37°
2026-04-26 09:16 55.55764 12.55029 988 ft 136 kts 37°
2026-04-26 09:16 55.56487 12.56126 756 ft 135 kts 37°
2026-04-26 09:16 55.57193 12.57173 578 ft 134 kts 38°
2026-04-26 09:17 55.57873 12.58258 374 ft 131 kts 38°
2026-04-26 09:17 55.58557 12.59313 194 ft 130 kts 39°
2026-04-26 09:17 55.59236 12.60355 65 ft 129 kts 38°
2026-04-26 09:17 55.59878 12.61339 24 ft 106 kts 41°
2026-04-26 09:18 55.60355 12.62079 23 ft 80 kts 45°
2026-04-26 09:18 55.60727 12.62664 26 ft 58 kts 44°
2026-04-26 09:18 55.60913 12.62843 25 ft 20 kts
2026-04-26 09:18 55.61045 12.62897 24 ft 19 kts
2026-04-26 09:19 55.61164 12.62974 24 ft 19 kts 40°
2026-04-26 09:19 55.61263 12.63127 24 ft 20 kts 41°
2026-04-26 09:19 55.61369 12.63289 25 ft 21 kts 41°
2026-04-26 09:19 55.61482 12.63463 24 ft 23 kts 41°
2026-04-26 09:20 55.61610 12.63661 24 ft 25 kts 40°
2026-04-26 09:20 55.61742 12.63866 26 ft 25 kts 41°
2026-04-26 09:20 55.61877 12.64071 24 ft 26 kts 37°
2026-04-26 09:20 55.62034 12.64200 26 ft 25 kts 25°
2026-04-26 09:21 55.62176 12.64319 23 ft 19 kts 25°
2026-04-26 09:21 55.62307 12.64407 23 ft 20 kts 14°
2026-04-26 09:21 55.62443 12.64470 24 ft 21 kts 15°
2026-04-26 09:21 55.62545 12.64349 24 ft 20 kts 301°
2026-04-26 09:22 55.62625 12.64139 24 ft 14 kts 301°
2026-04-26 09:22 55.62638 12.64100 25 ft 1 kts 302°
2026-04-26 09:22 55.62654 12.64056 25 ft 5 kts 302°
2026-04-26 09:22 55.62676 12.63995 24 ft 6 kts 306°
2026-04-26 09:23 55.62710 12.64001 24 ft 6 kts 31°
2026-04-26 09:23 55.62733 12.64027 24 ft 2 kts 32°
2026-04-26 09:23 55.62734 12.64027 24 ft 0 kts 32°
2026-04-26 09:23 55.62737 12.64031 24 ft 1 kts 32°
2026-04-26 09:24 55.62740 12.64035 24 ft 0 kts 32°
2026-04-26 09:24 55.62742 12.64037 24 ft 1 kts 32°
2026-04-26 09:24 55.62745 12.64040 24 ft 0 kts 33°